FFL12 LFMN-LFTZ

Flight info

Callsign FFL12
Flight time 0h 19m
Altitude 5000
Route XAMAL DCT RAPED DCT STP
Aircraft S22T/L-SDGRY/S

Departure

Time 2026-05-06 18:34
Airport Nice-Côte d'Azur Airport (LFMN)

Arrival

Time 2026-05-06 18:53
Airport La Môle Airport (LFTZ)
Time Latitude Longitude Altitude Speed Heading
2026-05-06 18:09 43.67210 7.22630 17 ft 0 kts 316°
2026-05-06 18:28 43.67221 7.22628 17 ft 5 kts 31°
2026-05-06 18:28 43.67194 7.22660 17 ft 9 kts 168°
2026-05-06 18:28 43.67151 7.22626 17 ft 9 kts 227°
2026-05-06 18:29 43.67100 7.22555 17 ft 11 kts 224°
2026-05-06 18:29 43.67039 7.22471 17 ft 14 kts 226°
2026-05-06 18:29 43.66975 7.22385 17 ft 7 kts 221°
2026-05-06 18:29 43.66936 7.22341 17 ft 7 kts 188°
2026-05-06 18:30 43.66908 7.22374 17 ft 0 kts 141°
2026-05-06 18:30 43.66906 7.22376 17 ft 2 kts 141°
2026-05-06 18:30 43.66887 7.22395 17 ft 8 kts 146°
2026-05-06 18:31 43.66847 7.22397 17 ft 6 kts 205°
2026-05-06 18:31 43.66812 7.22398 16 ft 5 kts 137°
2026-05-06 18:31 43.66796 7.22422 16 ft 1 kts 128°
2026-05-06 18:31 43.66770 7.22459 16 ft 10 kts 135°
2026-05-06 18:32 43.66713 7.22537 16 ft 12 kts 137°
2026-05-06 18:32 43.66653 7.22621 17 ft 14 kts 133°
2026-05-06 18:32 43.66592 7.22696 17 ft 10 kts 140°
2026-05-06 18:32 43.66549 7.22759 18 ft 3 kts 157°
2026-05-06 18:33 43.66515 7.22771 18 ft 8 kts 182°
2026-05-06 18:33 43.66447 7.22689 18 ft 34 kts 225°
2026-05-06 18:33 43.66142 7.22262 122 ft 75 kts 226°
2026-05-06 18:33 43.65754 7.21702 443 ft 85 kts 228°
2026-05-06 18:34 43.65360 7.21130 913 ft 82 kts 228°
2026-05-06 18:34 43.64965 7.20572 1355 ft 82 kts 226°
2026-05-06 18:34 43.64522 7.20027 1742 ft 88 kts 220°
2026-05-06 18:34 43.64013 7.19494 2123 ft 94 kts 216°
2026-05-06 18:35 43.63474 7.19005 2573 ft 94 kts 220°
2026-05-06 18:35 43.62964 7.18439 3041 ft 93 kts 225°
2026-05-06 18:35 43.62468 7.17854 3450 ft 96 kts 228°
2026-05-06 18:35 43.62019 7.17185 3900 ft 95 kts 230°
2026-05-06 18:36 43.61516 7.16538 4327 ft 100 kts 226°
2026-05-06 18:36 43.61007 7.15896 4776 ft 100 kts 226°
2026-05-06 18:36 43.60461 7.15213 5003 ft 119 kts 227°
2026-05-06 18:36 43.59780 7.14364 5034 ft 143 kts 226°
2026-05-06 18:37 43.58881 7.13613 5033 ft 164 kts 201°
2026-05-06 18:37 43.57728 7.13294 5027 ft 172 kts 195°
2026-05-06 18:37 43.56552 7.12892 5026 ft 175 kts 198°
2026-05-06 18:37 43.55378 7.12428 5026 ft 175 kts 199°
2026-05-06 18:38 43.54208 7.11967 5022 ft 174 kts 201°
2026-05-06 18:38 43.53053 7.11514 5026 ft 172 kts 201°
2026-05-06 18:38 43.51909 7.11056 5020 ft 171 kts 200°
2026-05-06 18:38 43.50770 7.10604 5022 ft 170 kts 198°
2026-05-06 18:39 43.49625 7.10163 5018 ft 171 kts 199°
2026-05-06 18:39 43.48496 7.09680 5011 ft 167 kts 209°
2026-05-06 18:39 43.47568 7.08795 5007 ft 161 kts 228°
2026-05-06 18:40 43.46258 7.06378 5008 ft 160 kts 236°
2026-05-06 18:40 43.45607 7.05142 5007 ft 160 kts 236°
2026-05-06 18:40 43.44949 7.03889 5009 ft 163 kts 236°
2026-05-06 18:40 43.44290 7.02630 5013 ft 161 kts 238°
2026-05-06 18:41 43.43640 7.01376 5011 ft 162 kts 236°
2026-05-06 18:41 43.42975 7.00111 5012 ft 164 kts 237°
2026-05-06 18:41 43.42308 6.98841 5016 ft 163 kts 237°
2026-05-06 18:41 43.41639 6.97560 5011 ft 166 kts 235°
2026-05-06 18:42 43.40965 6.96278 5014 ft 164 kts 236°
2026-05-06 18:42 43.40302 6.95011 5014 ft 163 kts 236°
2026-05-06 18:42 43.39637 6.93739 5013 ft 164 kts 235°
2026-05-06 18:42 43.38968 6.92474 5013 ft 163 kts 236°
2026-05-06 18:43 43.38307 6.91210 5018 ft 162 kts 236°
2026-05-06 18:43 43.37654 6.89964 5022 ft 160 kts 236°
2026-05-06 18:43 43.37005 6.88731 5022 ft 159 kts 236°
2026-05-06 18:43 43.36357 6.87492 5020 ft 160 kts 235°
2026-05-06 18:44 43.35701 6.86250 5022 ft 161 kts 236°
2026-05-06 18:44 43.35045 6.85008 5028 ft 160 kts 236°
2026-05-06 18:44 43.34397 6.83764 5029 ft 160 kts 238°
2026-05-06 18:44 43.33749 6.82527 5028 ft 163 kts 236°
2026-05-06 18:45 43.33066 6.81239 5030 ft 166 kts 236°
2026-05-06 18:45 43.32397 6.79972 5034 ft 166 kts 237°
2026-05-06 18:45 43.31720 6.78683 5036 ft 167 kts 237°
2026-05-06 18:45 43.31042 6.77401 5045 ft 165 kts 238°
2026-05-06 18:46 43.30421 6.76077 5039 ft 165 kts 246°
2026-05-06 18:46 43.29977 6.74613 4950 ft 168 kts 251°
2026-05-06 18:46 43.29512 6.73138 4800 ft 170 kts 249°
2026-05-06 18:46 43.29022 6.71658 4476 ft 168 kts 250°
2026-05-06 18:47 43.28543 6.70228 4183 ft 157 kts 250°
2026-05-06 18:47 43.28108 6.68963 4156 ft 140 kts 250°
2026-05-06 18:47 43.27702 6.67766 4026 ft 137 kts 248°
2026-05-06 18:47 43.27305 6.66602 3915 ft 134 kts 248°
2026-05-06 18:48 43.26912 6.65445 3760 ft 134 kts 250°
2026-05-06 18:48 43.26516 6.64281 3501 ft 136 kts 251°
2026-05-06 18:48 43.26128 6.63115 3178 ft 134 kts 251°
2026-05-06 18:48 43.25735 6.61954 2799 ft 133 kts 250°
2026-05-06 18:49 43.25356 6.60845 2558 ft 125 kts 250°
2026-05-06 18:49 43.25028 6.59799 2484 ft 106 kts 252°
2026-05-06 18:49 43.24715 6.58793 2174 ft 115 kts 251°
2026-05-06 18:49 43.24340 6.57766 2104 ft 119 kts 248°
2026-05-06 18:50 43.23970 6.56831 1970 ft 109 kts 248°
2026-05-06 18:50 43.23591 6.55918 1586 ft 113 kts 244°
2026-05-06 18:50 43.23179 6.55028 1447 ft 108 kts 246°
2026-05-06 18:50 43.22853 6.54215 1199 ft 84 kts 253°
2026-05-06 18:51 43.22634 6.53478 1156 ft 83 kts 251°
2026-05-06 18:51 43.22294 6.52803 1111 ft 86 kts 241°
2026-05-06 18:51 43.22055 6.52018 956 ft 94 kts 252°
2026-05-06 18:51 43.21738 6.51236 821 ft 92 kts 245°
2026-05-06 18:52 43.21397 6.50414 481 ft 102 kts 242°
2026-05-06 18:52 43.21095 6.49580 267 ft 92 kts 244°
2026-05-06 18:52 43.20797 6.48839 70 ft 84 kts 239°
2026-05-06 18:52 43.20571 6.48256 58 ft 54 kts 240°
2026-05-06 18:53 43.20442 6.47928 62 ft 24 kts 243°
2026-05-06 18:53 43.20387 6.47775 66 ft 13 kts 267°
2026-05-06 18:53 43.20421 6.47739 65 ft 8 kts 282°
2026-05-06 18:53 43.20394 6.47657 62 ft 12 kts 246°
2026-05-06 18:54 43.20390 6.47569 59 ft 5 kts 331°
2026-05-06 18:54 43.20393 6.47566 60 ft 0 kts 332°